Weather Service Report


660 
ASUS46 KLOX 151304
RWRCA 

SOUTHERN CALIFORNIA WEATHER ROUNDUP
NATIONAL WEATHER SERVICE OXNARD CALIFORNIA
600 AM PDT MON OCT 15 2018

NOTE: "FAIR" INDICATES FEW OR NO CLOUDS BELOW 12,000 FEET WITH NO 
SIGNIFICANT WEATHER AND/OR OBSTRUCTIONS TO VISIBILITY.

  -  STATIONS PRECEEDED BY AN ASTERISK (*) ARE NOT NWS OR FAA 
     STATIONS AND ARE NOT SUBJECT TO NWS AND FAA QUALITY CONTROL.

CAZ041-042-087-151400-
LA AND ORANGE COUNTY COASTAL AREAS

  
CITY           SKY/WX    TMP DP  RH WIND       PRES   REMARKS
L.A. DOWNTOWN  CLEAR    N/A N/A N/A CALM      30.02R                  
L.A. AIRPORT   PTCLDY    61  58  90 NE3       30.03R                  
LONG BEACH     CLEAR     59  57  93 NW3       30.03R                  

CITY           SKY/WX    TMP DP  RH WIND       PRES   REMARKS
AVALON           N/A     68 N/A N/A NW2         N/A                   
FULLERTON      CLEAR     67  28  23 E7        30.02R                  
HAWTHORNE      PTCLDY    60  58  92 CALM      30.03R                  
*LEO CARRILLO    N/A     71  14  11 NE14G29     N/A                   
*LOS ALAMITOS  FAIR      65  28  25 NE12      30.02R                  
*REDONDO BEACH   N/A     58  54  86 CALM      30.02R                  
SANTA ANA      PTCLDY    71  21  15 NE18G36   30.01R                  
STA MONICA APT CLEAR     60  54  80 NE3       30.03R                  
*UCLA            N/A     66  21  18 N6        30.01R                  

$$

CAZ547-548-048-151400-
LA COUNTY VALLEYS AND INLAND EMPIRE

  
CITY           SKY/WX    TMP DP  RH WIND       PRES   REMARKS
BURBANK        CLEAR     70  12  10 NE26G36   30.01S                  
VAN NUYS       CLEAR     69  15  12 N13       30.05R                  

CITY           SKY/WX    TMP DP  RH WIND       PRES   REMARKS
CORONA AIRPORT SUNNY     67  16  14 E14G25    30.10R                  
*CHATSWORTH      N/A     67  19  16 NE5       30.05R                  
CHINO          CLEAR     69  12  11 NE13G25   30.05R                  
*CLAREMONT       N/A     64  10  12 N13G38      N/A                   
MARCH AFB      CLEAR     63  14  15 N17       30.08R                  
*NORTHRIDGE      N/A     66  10  11 N3G13       N/A                   
ONTARIO        PTCLDY    66  13  12 NE28G39   30.05R                  
*PASADENA        N/A     57  55  94 CALM        N/A                   
RIVERSIDE      CLEAR     65  13  13 NE16G30   30.08R                  
SAN BERNARDINO FAIR      66  13  13 NE22G36   30.11R                  
*SAN RAFAEL HI   N/A     63   8  11 NE10G33     N/A                   
*SAUGUS          N/A     62  12  14 N21G35      N/A                   
*WHITEMAN AP   NOT AVBL                                               
*WHITTIER HILL   N/A     65  24  21 N14G31      N/A                   
*WOODLAND HILL   N/A     66  16  14 VRB6G12     N/A                   

$$

CAZ054-055-151400-
LA AND SAN BERNARDINO COUNTY MOUNTAINS

  
CITY           SKY/WX    TMP DP  RH WIND       PRES   REMARKS
*ACTON           N/A     57  10  15 NE14G28     N/A                   
*BIG BEAR AIRP SUNNY     34   5  29 NE10G20   30.23S WCI  26          
*BIG PINES       N/A     32   5  31 CALM        N/A                   
*CHILAO          N/A     44   2  17 NE24G52     N/A  WCI  35          
SANDBERG       CLEAR     48   6  18 E30G41    30.19R                  
*WARM SPRINGS    N/A     49   6  17 E35G49      N/A                   

$$

CAZ028-029-059-060-099-151400-
ANTELOPE VALLEY AND SURROUNDING AREAS

  
CITY           SKY/WX    TMP DP  RH WIND       PRES   REMARKS
LANCASTER      CLEAR     45  10  24 E8        30.23R                  
PALMDALE       CLEAR     44  18  35 E8        30.23R                  
*POPPY PARK      N/A     43  11  26 NE6         N/A                   

CITY           SKY/WX    TMP DP  RH WIND       PRES   REMARKS
29 PALMS       PTCLDY    52  22  30 NW9       30.27R                  
BARSTOW/DAGGET CLEAR     53  11  18 N7        30.23R                  
BISHOP         PTCLDY    34  11  38 NW8       30.36R WCI  27          
CHINA LAKE     CLEAR     55   9  16 NW17      30.23R                  
EDWARDS AFB    CLEAR     51   4  14 NE12      30.21R                  
MOJAVE         MOCLDY    50   7  17 CALM      30.21R                  
NEEDLES        CLEAR     60  16  18 N25G33    30.12R                  
VICTORVILLE    CLEAR    N/A N/A N/A CALM      30.23                   

$$

CAZ039-040-151400-
VENTURA AND SANTA BARBARA COUNTY COAST

  
CITY           SKY/WX    TMP DP  RH WIND       PRES   REMARKS
CAMARILLO      LGT RAIN  72  12  10 E26G37    30.02R                  
OXNARD AIRPORT CLEAR     70  15  12 E21G32    30.01R                  
*POINT MUGU    CLEAR     70  19  14 NE25G36   30.02R                  
SBA APT/GOLETA CLEAR     52  50  93 CALM      30.02R                  
*SANTA BARBARA   N/A     55  50  83 CALM      30.09S                  
*VENTURA         N/A     68  21  17 MISG        N/A                   

$$

CAZ044-045-151400-
VENTURA COUNTY VALLEYS

  
CITY           SKY/WX    TMP DP  RH WIND       PRES   REMARKS
*SIMI VALLEY     N/A     66  20  17 NE12      30.00R                  
*WESTLAKE VILL   N/A     65  22  19 NE2       30.04R                  
*OJAI            N/A     67  57  70 W1        29.98R                  
*FILLMORE        N/A     68  18  14 NE18      30.12R                  

$$

CAZ053-151400-
VENTURA COUNTY MOUNTAINS

  
CITY           SKY/WX    TMP DP  RH WIND       PRES   REMARKS
*LOCKWOOD VLY    N/A     43   9  24 MISG        N/A                   
*FRAZIER MTN     N/A     30   6  35 E5        30.06R WCI  25          
*ROSE VALLEY     N/A     54  12  19 MISG        N/A                   

$$

CAZ034-035-036-151400-
CENTRAL COAST AND SANTA YNEZ VALLEY

  
CITY           SKY/WX    TMP DP  RH WIND       PRES   REMARKS
SAN LUIS OBISP CLOUDY    49  46  90 SE3       30.05S                  
SANTA MARIA    CLEAR     51  48  89 CALM      30.06R                  

CITY           SKY/WX    TMP DP  RH WIND       PRES   REMARKS
*CAL POLY SLO    N/A     48  48 100 CALM        N/A                   
*LOMPOC        CLEAR     49  48  97 E6        30.06R                  
*PISMO BEACH     N/A     50  32  49 CALM      30.05R                  
*SANTA YNEZ    FAIR      46  45  93 CALM      30.05S                  

$$

CAZ037-038-051-151400-
SAN LUIS OBISPO COUNTY INTERIOR AND CUYAMA VALLEY

  
CITY           SKY/WX    TMP DP  RH WIND       PRES   REMARKS
PASO ROBLES    CLEAR     43  41  93 CALM      30.09R                  

$$

CAZ032-033-061-151400-
SOUTHERN DESERTS

  
CITY           SKY/WX    TMP DP  RH WIND       PRES   REMARKS
BLYTHE         CLEAR     59  19  21 N14       30.07R                  
IMPERIAL       CLEAR     58  32  37 W3        30.03R                  
PALM SPRINGS   CLEAR     68  11  11 N6        30.14R                  
THERMAL        CLEAR     70  19  14 NW16      30.05R                  

$$

ELSEWHERE ACROSS THE WESTERN UNITED STATES AND MEXICO

  
CITY           SKY/WX    TMP DP  RH WIND       PRES   REMARKS
DENVER, CO     CLEAR     19  13  77 SW10      30.32S WCI   7          
GRAND CANYON,  CLEAR     33  17  51 NE13G30   30.22R WCI  24          
HONOLULU, HI   MOCLDY    74  68  81 CALM      29.90F                  
KAHULUI, MAUI  CLEAR     74  70  87 NE3       29.89F                  
LAKE TAHOE, CA PTCLDY    25  12  58 S3        30.34R                  
LAS VEGAS, NV  CLEAR     52   7  16 N13       30.25R                  
MAMMOTH LAKES, FAIR      26   8  46 W8        30.38S WCI  17          
MEXICO CITY, M PTCLDY    61  48  63 SW3       30.26S                  
PHOENIX, AZ    PTCLDY    66  52  60 E9        29.96R                  
PORTLAND, OR   CLEAR     44  39  82 NW8       30.31S                  
RENO, NV       PTCLDY    33  15  47 SW3       30.41R                  
SALT LAKE CITY CLEAR     31  22  69 CALM      30.42R                  
SAN DIEGO, CA  PTCLDY    63  58  83 CALM      30.01R                  
SAN FRANCISCO, CLEAR     65  35  33 E17       30.08R                  
SAN JOSE, CA   CLEAR     50  43  77 SE3       30.09R                  
SEATTLE, WA    CLEAR     47  41  80 N9        30.35S                  
TIJUANA, MEX   CLEAR     55  55 100 CALM      30.02S                  

$$
  
STATION/POSITION TIME  TEMP    WIND        PRES    VSBY  WAVE
                       AIR SEA DIR/SP/G                  HT/PER
                 (UTC) (F)     (DEG/KT/KT) (MB)    (MI)  (FT/S)
WEST SANTA BARBA 1240                      1016.2R
EAST SANTA BARBA 1240   64 67   CALM  /  2 1016.7R
SANTA MONICA BAY 1240   66 68  310/  6/  6 1016.3R
SAN CLEMENTE BAS 1150   66 67  340/ 10/ 12 1015.4R         4/17

Return to Home page


Western Regional Climate Center, wrcc@dri.edu